Wind_Speed
25 26 30 24 23 21 20 20 15 14 14 21 26 28 25 25 26 26 28 30 28 29 28 29 27 26 24 21 20 18 17 16 15 13 10 9 8 9 11 13 15 15 14 16
25 32 25 24 18 21 21 22 25 24 22 26 29 33 30 29 36 35 32 34 35 35 33 33 31 28 25 22 19 18 17 16 15 14 12 10 9 11 12 13 15 15 15 16
29 22 16 19 26 25 26 25 23 21 21 25 29 40 38 34 33 38 39 38 42 42 37 35 33 30 26 23 21 19 17 16 16 16 14 13 12 11 13 14 16 17 17 19
26 28 26 24 22 21 24 22 20 22 22 14 11 12 24 21 25 26 31 33 37 37 34 33 33 31 28 24 22 19 17 18 18 19 17 14 13 12 13 17 19 20 20 21
27 29 29 33 33 25 25 24 20 23 25 23 29 20 35 22 21 31 34 35 34 29 27 27 31 31 29 24 21 18 18 19 20 19 17 15 13 14 17 19 20 21 23 24
37 32 25 27 27 26 29 24 20 22 22 11 29 29 18 30 28 28 28 28 31 32 27 26 26 27 26 23 22 19 18 17 19 19 18 16 16 17 20 22 23 25 26 26
39 42 38 33 29 25 23 20 3 3 4 8 9 20 35 9 17 20 22 22 25 26 27 25 23 22 22 21 18 17 16 17 18 18 18 18 21 22 24 25 26 28 29 30
30 16 37 41 46 35 26 29 12 6 4 4 11 14 19 18 28 28 24 23 26 28 27 23 23 21 19 16 15 15 16 17 18 19 21 23 24 26 27 28 30 32 32 33
20 19 15 20 16 35 20 28 28 16 18 8 15 26 30 24 23 27 26 28 26 26 25 24 22 19 17 15 15 17 18 20 21 23 24 25 27 29 29 31 33 34 34 36
26 11 19 25 23 30 26 15 16 19 2 6 9 25 25 11 15 27 28 27 28 27 27 25 23 21 19 17 17 19 21 23 25 26 27 29 30 30 32 34 35 36 37 39
39 24 13 24 29 32 37 26 14 13 15 4 4 12 15 21 20 21 25 27 29 28 27 25 24 22 20 18 20 23 27 28 29 30 30 31 32 33 35 36 36 38 40 42
40 29 19 30 24 26 31 30 38 24 11 26 22 45 28 18 14 19 21 27 32 32 29 29 27 26 23 24 26 29 29 29 30 32 33 34 35 36 37 37 39 42 42 41
39 29 17 13 19 21 32 38 39 36 28 43 12 32 12 16 23 20 22 26 33 36 37 37 34 29 26 28 28 29 29 29 32 34 35 36 36 38 38 40 43 44 39 36
33 36 40 38 29 23 34 43 45 45 40 32 55 49 39 29 24 22 23 28 35 40 42 40 35 29 28 29 28 29 31 33 33 35 36 37 38 39 41 43 44 39 36 37
40 41 40 48 44 38 33 27 32 52 60 37 62 49 51 49 47 43 34 29 35 38 43 42 40 30 31 30 28 32 35 34 35 36 37 39 39 42 45 44 42 37 38 39
42 47 47 53 53 47 52 54 49 39 42 49 58 67 48 46 38 39 44 40 40 40 41 44 40 37 33 30 30 33 35 36 33 37 39 39 41 45 46 43 43 39 40 40
43 45 38 46 43 43 30 80 64 65 61 63 63 70 54 52 53 46 41 42 42 42 44 43 42 36 30 30 30 31 33 34 35 37 36 40 44 45 45 44 40 40 40 40
50 50 44 40 22 13 68 52 45 47 53 61 67 67 61 48 45 46 49 45 39 44 44 43 38 32 31 34 33 32 35 37 36 36 40 44 45 43 43 40 41 40 39 38
46 45 34 24 32 40 47 34 35 42 49 41 48 53 55 52 49 45 46 45 42 44 44 48 49 32 32 35 34 34 36 36 38 40 42 42 41 40 40 41 39 38 37 36
67 68 53 30 12 14 46 29 33 31 48 42 39 41 40 46 49 50 46 45 46 50 59 47 27 32 29 31 31 33 36 38 38 38 36 37 39 39 40 37 35 34 34 35
50 58 52 49 31 27 48 41 20 22 31 27 24 27 32 43 44 40 40 45 45 34 22 24 27 30 30 28 32 35 36 34 32 34 36 37 38 37 35 34 33 32 33 34
41 30 34 40 28 22 40 32 28 30 34 37 30 21 23 29 32 39 40 29 22 23 23 26 28 30 33 34 33 31 30 30 33 35 36 35 33 32 31 32 32 33 34 34
27 34 32 29 21 35 33 30 30 31 29 27 20 17 17 18 21 21 20 19 22 24 25 27 28 28 28 28 29 31 30 32 33 32 30 29 29 29 30 31 31 33 33 34
26 25 26 24 21 25 25 29 31 30 31 25 24 20 17 15 15 18 22 22 23 24 24 25 27 28 28 29 30 30 30 28 28 28 27 27 27 28 30 31 33 34 35 37
21 18 25 23 14 12 12 11 11 13 12 12 11 14 20 23 21 20 22 22 22 23 25 27 28 28 28 28 26 26 25 26 26 27 28 29 29 31 32 34 37 39 40 41
14 15 13 10 12 12 12 10 9 9 6 12 17 19 18 16 16 19 22 22 23 24 25 26 26 25 23 24 25 26 27 27 28 30 32 33 34 35 37 38 41 43 43 43
Wind_Direction
254 250 250 258 259 261 244 263 254 230 275 271 275 279 274 272 269 263 264 259 257 257 257 261 266 270 271 265 261 249 254 255 254 249 246 251 264 286 292 293 292 292 289 290
250 252 260 259 241 247 254 251 254 262 270 272 276 276 274 266 270 272 268 266 264 260 260 263 266 268 266 262 249 244 249 253 258 246 239 245 266 283 286 285 279 271 275 283
251 252 255 245 240 240 246 251 260 264 278 273 277 280 278 278 268 268 263 259 260 261 258 258 261 261 257 258 246 245 250 257 253 246 243 247 259 266 271 274 273 269 274 278
257 251 244 249 246 246 252 259 266 267 261 262 281 282 268 260 258 251 257 257 260 264 260 258 259 256 253 250 241 244 250 255 245 241 243 252 256 257 270 277 271 270 273 272
247 258 254 246 251 251 252 254 250 256 263 270 265 271 277 286 257 259 261 255 257 261 258 257 253 248 246 241 237 240 245 243 241 243 246 253 264 264 272 268 261 264 263 270
240 245 242 242 247 245 242 251 256 266 269 259 262 243 273 269 274 265 256 250 246 247 252 248 243 235 230 228 233 239 242 244 243 244 247 255 265 270 270 265 263 265 268 271
239 237 239 244 241 241 234 236 233 273 198 237 257 234 238 253 243 251 253 254 245 236 238 238 230 221 221 227 235 239 245 245 246 251 258 265 271 272 269 261 265 269 271 274
231 233 240 242 245 242 242 237 204 226 211 262 228 235 248 269 239 247 249 247 239 235 237 230 222 218 222 229 238 247 249 252 257 259 262 263 267 268 260 263 267 270 274 282
224 236 236 232 238 222 219 210 225 264 282 286 248 257 254 254 257 244 249 245 236 236 232 225 224 226 227 233 243 248 253 259 264 262 261 267 267 261 263 268 270 274 281 288
224 238 237 238 224 197 213 225 198 210 237 251 250 252 242 237 255 244 242 237 234 232 225 227 230 227 228 233 242 251 257 263 264 263 266 266 264 267 268 269 273 279 286 292
220 223 215 214 216 212 208 204 198 214 217 227 276 258 271 256 255 244 240 236 235 235 232 237 231 225 226 238 254 259 265 266 265 265 266 264 265 267 268 270 275 285 291 293
222 211 240 240 243 231 233 238 228 222 217 230 244 261 258 266 260 231 236 234 232 231 235 239 233 235 240 255 259 268 262 260 263 263 261 262 264 265 267 272 282 290 292 289
214 211 227 244 234 224 228 231 236 234 235 241 221 254 263 258 247 235 240 232 228 232 238 236 233 231 250 262 264 258 258 260 261 260 260 260 262 263 267 277 288 292 287 288
223 224 224 226 235 238 229 238 237 231 228 240 241 246 248 252 259 258 239 235 231 233 239 237 227 238 262 263 260 258 255 257 259 258 258 259 260 263 273 285 291 288 285 288
223 224 228 241 246 247 250 251 243 233 240 228 256 253 260 262 258 256 258 249 247 246 244 232 231 251 268 266 258 249 250 256 258 258 259 258 257 268 281 288 290 282 286 289
220 232 239 246 247 246 245 247 249 243 251 252 258 262 259 264 264 256 252 250 247 246 243 233 235 258 273 266 257 247 255 253 258 259 256 254 266 277 282 283 285 282 286 288
228 229 229 244 244 248 253 249 246 250 249 251 249 266 271 263 256 252 253 252 247 243 241 239 247 269 268 266 253 255 253 255 255 253 250 261 272 277 280 280 278 283 285 284
234 235 230 246 246 222 253 262 257 255 261 255 258 264 265 260 261 259 253 251 248 245 239 242 258 261 259 259 250 252 246 251 251 249 258 266 273 274 276 276 281 283 281 280
235 233 229 230 237 252 261 255 250 239 270 270 264 266 260 259 255 251 249 247 245 236 236 245 253 262 253 248 253 252 249 251 256 261 264 268 270 270 273 279 281 279 277 280
235 242 233 229 230 234 260 263 261 255 261 272 261 259 255 256 247 250 246 238 233 232 240 255 257 253 251 254 254 252 255 260 262 264 264 264 268 274 280 280 279 278 280 280
217 222 220 227 235 248 254 260 253 205 255 268 268 259 251 246 251 251 239 235 240 251 244 249 250 257 256 254 253 253 258 260 259 261 264 270 277 280 281 280 281 282 280 280
212 204 219 228 235 241 248 250 239 249 251 255 263 254 231 236 242 242 241 240 241 252 251 251 254 259 259 255 255 255 256 258 262 267 272 277 280 281 283 284 282 279 278 280
207 213 213 213 227 236 245 244 235 240 240 240 229 210 201 210 219 236 248 248 246 245 248 251 249 249 249 251 255 259 263 265 268 273 278 280 282 285 283 281 280 279 281 283
223 224 222 223 231 234 236 233 234 239 230 233 215 207 217 236 238 232 232 237 248 250 250 246 248 255 255 256 259 261 263 267 273 277 278 281 283 284 284 283 282 282 283 284
241 239 232 237 240 210 196 200 205 209 231 258 255 227 208 208 220 233 236 241 245 247 247 251 253 254 256 258 260 260 262 268 273 277 280 282 282 283 283 283 282 280 279 279
243 245 240 244 240 237 244 268 264 261 235 212 210 218 228 237 239 236 240 247 249 251 255 257 258 258 259 261 259 259 267 274 280 284 283 280 279 279 280 280 280 278 276 277
Height
3147 3149 3146 3151 3153 3154 3156 3156 3156 3157 3155 3155 3153 3151 3153 3151 3151 3151 3151 3151 3154 3154 3155 3155 3155 3156 3156 3157 3157 3159 3160 3161 3161 3161 3162 3163 3164 3164 3165 3166 3167 3167 3167 3167
3141 3138 3145 3148 3149 3150 3150 3151 3151 3153 3151 3151 3148 3144 3145 3146 3142 3144 3146 3143 3144 3145 3148 3148 3149 3150 3150 3151 3152 3153 3155 3155 3157 3157 3157 3159 3160 3162 3162 3163 3163 3163 3162 3162
3135 3137 3139 3141 3142 3145 3145 3146 3148 3149 3148 3145 3143 3133 3135 3136 3136 3134 3136 3137 3133 3134 3138 3140 3141 3143 3144 3146 3147 3149 3150 3151 3152 3154 3155 3156 3157 3157 3158 3158 3158 3158 3159 3158
3130 3133 3134 3135 3137 3140 3140 3142 3143 3144 3144 3142 3140 3129 3127 3128 3127 3127 3125 3126 3125 3124 3129 3132 3134 3136 3138 3140 3142 3144 3146 3147 3148 3149 3151 3152 3153 3153 3153 3153 3154 3154 3154 3154
3123 3124 3127 3128 3130 3136 3135 3137 3139 3138 3137 3136 3135 3133 3111 3117 3116 3116 3116 3119 3117 3118 3120 3123 3125 3128 3132 3135 3137 3139 3140 3142 3143 3146 3148 3149 3148 3148 3148 3148 3149 3148 3147 3147
3117 3119 3120 3122 3125 3128 3128 3132 3134 3134 3133 3127 3125 3126 3105 3108 3106 3107 3108 3110 3110 3111 3115 3117 3118 3121 3125 3128 3131 3133 3135 3137 3138 3141 3142 3143 3144 3144 3145 3144 3142 3143 3144 3143
3109 3109 3112 3116 3120 3122 3124 3128 3130 3131 3129 3117 3115 3114 3096 3102 3102 3102 3102 3103 3104 3106 3108 3110 3114 3116 3120 3123 3126 3128 3129 3131 3134 3135 3136 3137 3138 3139 3139 3139 3138 3138 3138 3137
3100 3103 3101 3104 3106 3113 3115 3120 3123 3122 3119 3111 3108 3098 3090 3093 3097 3097 3097 3098 3098 3099 3102 3105 3108 3111 3115 3117 3120 3122 3124 3126 3128 3128 3129 3130 3131 3132 3133 3133 3133 3132 3132 3132
3095 3095 3094 3097 3099 3105 3107 3110 3114 3114 3111 3109 3097 3088 3086 3086 3090 3090 3089 3091 3093 3095 3097 3100 3103 3106 3109 3111 3114 3116 3118 3120 3121 3122 3122 3123 3125 3125 3126 3126 3127 3126 3125 3124
3089 3091 3089 3091 3094 3095 3097 3102 3108 3112 3113 3107 3085 3081 3076 3077 3081 3083 3083 3085 3088 3090 3092 3095 3098 3101 3103 3105 3108 3110 3112 3113 3114 3115 3116 3117 3118 3118 3118 3118 3118 3119 3117 3116
3080 3086 3085 3084 3081 3084 3090 3092 3097 3100 3100 3096 3087 3069 3068 3071 3074 3076 3079 3081 3084 3086 3088 3091 3093 3096 3097 3100 3102 3104 3105 3106 3106 3108 3109 3110 3111 3110 3110 3110 3110 3110 3108 3106
3067 3075 3077 3077 3076 3080 3082 3082 3086 3089 3089 3082 3079 3046 3067 3069 3070 3072 3074 3075 3079 3081 3083 3085 3087 3089 3091 3095 3096 3097 3098 3099 3100 3101 3101 3102 3102 3103 3102 3102 3101 3100 3099 3097
3056 3062 3071 3072 3072 3070 3071 3072 3073 3078 3078 3060 3077 3041 3059 3063 3064 3068 3069 3071 3073 3075 3075 3077 3079 3082 3086 3088 3089 3089 3090 3092 3092 3093 3094 3094 3094 3094 3094 3093 3092 3090 3089 3088
3049 3049 3048 3046 3050 3059 3058 3061 3065 3067 3060 3059 3043 3048 3054 3059 3060 3062 3064 3065 3066 3068 3068 3070 3072 3075 3078 3079 3080 3081 3082 3083 3085 3084 3085 3085 3086 3086 3085 3083 3082 3081 3080 3078
3038 3038 3043 3040 3046 3051 3049 3050 3051 3048 3042 3052 3023 3041 3045 3049 3054 3054 3056 3058 3058 3059 3060 3062 3064 3066 3069 3070 3071 3073 3074 3075 3077 3076 3076 3077 3077 3076 3075 3075 3073 3071 3071 3069
3026 3026 3033 3030 3036 3040 3039 3040 3031 3037 3039 3038 3030 3017 3040 3042 3044 3045 3045 3047 3047 3050 3052 3054 3055 3056 3059 3061 3063 3065 3066 3066 3068 3068 3068 3068 3068 3066 3066 3066 3064 3063 3061 3059
3018 3020 3023 3013 3025 3028 3026 2991 3022 3020 3020 3022 3018 3001 3027 3029 3030 3034 3035 3036 3038 3041 3044 3045 3045 3047 3049 3051 3054 3056 3057 3057 3059 3059 3059 3058 3058 3058 3057 3056 3054 3053 3051 3050
3005 3009 3012 3006 3014 3006 2976 2997 2999 3004 3003 3008 3004 3002 3009 3015 3020 3024 3023 3027 3031 3033 3034 3034 3036 3038 3040 3041 3044 3046 3046 3047 3049 3050 3050 3050 3050 3049 3047 3046 3045 3043 3042 3041
2993 2996 2997 2997 2992 2989 2980 2978 2986 2988 2979 2992 2993 2994 2997 3004 3010 3008 3011 3016 3019 3022 3023 3022 3025 3027 3030 3031 3033 3035 3036 3038 3040 3040 3041 3040 3039 3039 3037 3036 3035 3034 3032 3031
2980 2983 2985 2985 2980 2976 2964 2972 2978 2984 2971 2972 2982 2984 2986 2990 2992 2993 3001 3005 3008 3009 3009 3013 3015 3018 3021 3022 3024 3025 3026 3027 3028 3029 3029 3029 3029 3029 3027 3026 3024 3023 3022 3021
2959 2964 2961 2964 2965 2961 2961 2965 2971 2975 2965 2964 2969 2973 2977 2978 2982 2988 2992 2991 2994 2999 3002 3005 3008 3010 3012 3013 3014 3015 3016 3018 3018 3019 3019 3020 3020 3018 3017 3016 3015 3014 3012 3011
2943 2949 2952 2955 2954 2952 2952 2957 2961 2962 2958 2961 2963 2965 2968 2971 2975 2979 2982 2983 2987 2990 2994 2997 2999 3001 3003 3004 3005 3006 3008 3009 3008 3009 3010 3010 3009 3008 3007 3007 3006 3005 3003 3002
2936 2937 2939 2942 2937 2940 2942 2946 2949 2951 2953 2955 2958 2960 2964 2967 2969 2972 2976 2980 2983 2986 2988 2989 2991 2992 2994 2996 2998 2999 3000 2999 2999 2999 2999 2999 2999 2999 2998 2997 2996 2995 2994 2993
2927 2928 2930 2931 2930 2933 2935 2938 2942 2945 2948 2951 2954 2957 2959 2963 2966 2970 2973 2976 2978 2980 2981 2982 2984 2985 2987 2989 2990 2991 2990 2989 2990 2990 2991 2991 2990 2990 2989 2987 2986 2984 2983 2983
2924 2925 2926 2927 2928 2930 2933 2935 2938 2943 2946 2950 2952 2954 2958 2961 2963 2966 2968 2971 2972 2974 2975 2977 2978 2979 2980 2980 2981 2981 2981 2981 2981 2981 2980 2980 2979 2979 2978 2977 2976 2975 2974 2973
2919 2921 2923 2925 2928 2929 2932 2934 2936 2939 2943 2946 2949 2951 2954 2956 2958 2960 2962 2964 2965 2967 2968 2969 2970 2971 2972 2972 2972 2972 2973 2973 2972 2971 2971 2970 2969 2969 2968 2967 2965 2965 2963 2960